[[{"header":{"parameterUnit":"m.s-1","parameterCategory":1,"la1":30.2991,"la2":30.254,"lo1":-89.0895,"lo2":-89.0444,"dy":0.0017,"dx":0.0017,"nx":28,"ny":28,"refTime":"2024-08-17T21:00:00:Z","depth":0,"parameterNumber":2,"parameterNumberName":"U-component_of_WINDS"},"data":[0,0,0,0,0,0,0,0,0,0,0,0,0,0,0,0,0,0,0,0,0,0,0,0,0,0,0,0,0,0,0,0,0,0,0,0,0,0,0,0,0,0,0,0,0,0,0,0,0,0,0,0,0,0,0,0,0,0,3.4296,3.4297,0,3.441,3.4411,3.4413,3.4347,3.4344,3.4341,3.4338,3.4455,3.4461,3.4467,0,0,0,0,0,0,0,0,0,0,0,0,0,3.4022,3.4027,3.4296,3.4297,3.4299,3.441,3.4412,3.4413,3.4348,3.4344,3.434,3.4336,3.4453,3.446,3.4468,0,0,0,0,0,0,0,0,0,0,0,0,0,3.4139,3.4029,3.4296,3.428,3.4279,3.441,3.4412,3.4414,3.4349,3.4344,3.4339,3.4334,3.4451,3.4459,3.4469,3.4621,0,0,3.4497,3.45,0,0,0,0,0,0,0,0,3.4132,3.4149,3.4281,3.4281,3.4281,3.4359,3.4358,3.4483,3.435,3.4322,3.4338,3.4332,3.4427,3.4438,3.447,3.4627,3.4632,3.4497,3.4503,3.4507,3.4509,0,0,0,0,0,0,0,3.4124,3.4144,3.4341,3.4282,3.4283,3.4267,3.4278,3.4381,3.44,3.4324,3.432,3.4334,3.4426,3.4461,3.4472,3.4634,3.4497,3.4505,3.4511,3.4514,3.4922,3.4927,0,0,0,0,0,0,3.4117,3.4137,3.4337,3.4344,3.4193,3.4276,3.4288,3.4339,3.4399,3.4403,3.4338,3.4331,3.4448,3.4462,3.4476,3.4659,3.4507,3.4515,3.4521,3.4916,3.4923,3.4929,0,0,0,0,0,0,3.4111,3.4136,3.4333,3.424,3.4264,3.4285,3.4343,3.4344,3.4379,3.4409,3.4413,3.437,3.4445,3.4463,3.4586,3.4662,3.4519,3.4528,3.491,3.4918,3.4926,3.5025,0,0,0,0,0,0,3.4104,3.4134,3.4192,3.4242,3.4269,3.4441,3.4348,3.435,3.4395,3.4386,3.444,3.4445,3.4442,3.4572,3.4595,3.4672,3.4535,3.4903,3.4914,3.4923,3.5015,3.5036,3.5053,0,0,0,0,0,3.4094,3.4216,3.4195,3.422,3.4342,3.4445,3.4461,3.4455,3.4401,3.446,3.448,3.4443,3.465,3.4585,3.461,3.4691,3.4898,3.4911,3.4922,3.5007,3.5032,3.5053,0,0,0,0,0,0,3.4175,3.4222,3.42,3.4341,3.439,3.4434,3.4508,3.4482,3.4547,3.4536,3.4527,3.454,3.4667,3.4691,3.4619,3.4842,3.4766,3.4783,3.4821,3.4845,3.4864,3.4855,3.4543,0,0,0,0,0,3.4209,3.4289,3.4326,3.4446,3.4472,3.4486,3.4531,3.4522,3.4572,3.4593,3.4621,3.4671,3.4747,3.4798,3.487,3.5019,3.5029,3.5087,3.5106,3.5121,3.5136,3.5216,3.5242,3.4968,3.4968,3.4967,0,0,3.428,3.4316,3.4367,3.4463,3.45,3.4583,3.4504,3.4595,3.4656,3.4606,3.4724,3.4747,3.4802,3.4938,3.5,3.4963,3.5214,3.5136,3.5148,3.5155,3.5231,3.5257,3.528,3.4976,3.4974,3.4973,0,0,3.4452,3.4487,3.4592,3.463,3.4687,3.4695,3.4721,3.4769,3.4783,3.49,3.4865,3.4938,3.5069,3.511,3.5148,3.5336,3.5305,3.536,3.5459,3.5537,3.5559,3.5578,3.5645,3.5669,3.5375,3.5375,3.5376,0,3.4533,3.4657,3.4649,3.4743,3.4786,3.4745,3.4851,3.4889,3.4966,3.4997,3.4954,3.5119,3.5153,3.5298,3.5344,3.5377,3.5405,3.5353,3.5556,3.5575,3.5593,3.5657,3.5682,3.5382,3.5381,3.538,3.538,0,3.4754,3.484,3.4918,3.4993,3.5046,3.5145,3.5152,3.5206,3.5194,3.5207,3.5327,3.5367,3.5446,3.548,3.5469,3.5624,3.5599,3.5557,3.548,3.5626,3.5685,3.5709,3.5391,3.5388,3.5387,3.5385,0,0,3.4979,3.5049,3.5078,3.5111,3.5171,3.5238,3.5335,3.5413,3.5459,3.5514,3.5596,3.5708,3.5669,3.5713,3.5706,3.5775,3.5921,3.5724,3.5725,3.5758,3.6094,3.6125,3.6154,3.5901,3.5906,3.5909,3.6089,0,3.5154,3.5325,3.532,3.5479,3.5558,3.5521,3.5606,3.5652,3.5667,3.5737,3.5753,3.5833,3.5776,3.5802,3.5869,3.5889,3.5988,3.5876,3.5976,3.598,3.5963,3.6185,3.6218,3.6386,3.6113,3.6117,3.6119,0,3.5381,3.5444,3.561,3.5658,3.5691,3.5768,3.5838,3.5905,3.5957,3.5963,3.6012,3.5994,3.6093,3.6014,3.6151,3.6075,3.6116,3.6132,3.6139,3.6147,3.6058,3.6198,3.6439,3.6464,3.6156,3.6153,3.6151,0,3.5528,3.5654,3.577,3.58,3.5859,3.5913,3.5941,3.5987,3.6034,3.6096,3.6126,3.6199,3.6239,3.6296,3.6298,3.6241,3.6436,3.6358,3.6444,3.6444,3.6486,3.6483,3.6736,3.6514,3.6514,3.6513,3.6513,0,3.5724,3.5827,3.5836,3.5907,3.6022,3.6016,3.613,3.6152,3.6194,3.6269,3.6241,3.6312,3.6311,3.6383,3.6386,3.6499,3.6517,3.6525,3.6524,3.6527,3.6526,3.6553,3.6541,3.652,3.6519,3.6517,3.6516,0,3.5907,3.5918,3.6041,3.6087,3.6101,3.6183,3.6222,3.629,3.6303,3.6398,3.642,3.644,3.6524,3.6532,3.6629,3.6631,3.6767,3.6754,3.6749,3.6747,3.6833,3.6824,3.7111,3.7148,3.6903,3.6905,3.6907,0,3.6031,3.6109,3.6164,3.6212,3.6242,3.632,3.6367,3.6365,3.6416,3.6481,3.6541,3.6621,3.6686,3.6821,3.6845,3.6919,3.6907,3.7003,3.6918,3.6919,3.6908,3.6903,3.6911,3.7019,3.7022,3.7024,3.7026,0,3.625,3.6251,3.632,3.6392,3.645,3.6506,3.6559,3.66,3.6604,3.6663,3.6748,3.6798,3.6897,3.6978,3.7051,3.7079,3.7054,3.7052,3.7076,3.7079,3.7073,3.7077,3.6793,3.7045,3.7043,3.7042,3.7041,3.704,3.6407,3.6474,3.6523,3.6601,3.6641,3.6691,3.6757,3.6778,3.6848,3.6929,3.6923,3.7017,3.7067,3.7162,3.7196,3.727,3.7238,3.7272,3.7281,3.7289,3.7298,3.7062,3.7283,3.7283,3.7282,3.7282,3.7281,0,3.6623,3.6653,3.6725,3.6799,3.6861,3.6832,3.6889,3.6942,3.7025,3.7074,3.7138,3.7235,3.7314,3.7344,3.742,3.7473,3.7463,3.7493,3.7489,3.7495,3.7322,3.7294,3.75,3.75,3.75,3.75,3.7499,3.7499,3.6743,3.6856,3.6863,3.6995,3.7024,3.7115,3.715,3.7197,3.7235,3.7345,3.741,3.7429,3.747,3.7549,3.762,3.7626,3.7656,3.769,3.7692,3.753,3.7508,3.7487,3.746,3.7697,3.7697,3.7859,3.786,3.7862]},{"header":{"parameterUnit":"m.s-1","parameterCategory":1,"la1":30.2991,"la2":30.254,"lo1":-89.0895,"lo2":-89.0444,"dy":0.0017,"dx":0.0017,"nx":28,"ny":28,"refTime":"2024-08-17T21:00:00:Z","depth":0,"parameterNumber":3,"parameterNumberName":"V-component_of_WINDS"},"data":[0,0,0,0,0,0,0,0,0,0,0,0,0,0,0,0,0,0,0,0,0,0,0,0,0,0,0,0,0,0,0,0,0,0,0,0,0,0,0,0,0,0,0,0,0,0,0,0,0,0,0,0,0,0,0,0,0,0,-0.5774,-0.5774,0,-0.5793,-0.5793,-0.5793,-0.5795,-0.5795,-0.5795,-0.5795,-0.5815,-0.5816,-0.5817,0,0,0,0,0,0,0,0,0,0,0,0,0,-0.5741,-0.5741,-0.5774,-0.5774,-0.5774,-0.5793,-0.5793,-0.5793,-0.5795,-0.5795,-0.5795,-0.5795,-0.5815,-0.5816,-0.5817,0,0,0,0,0,0,0,0,0,0,0,0,0,-0.5757,-0.5741,-0.5773,-0.5777,-0.5778,-0.5793,-0.5793,-0.5793,-0.5795,-0.5795,-0.5795,-0.5794,-0.5815,-0.5816,-0.5817,-0.5829,0,0,-0.582,-0.5821,0,0,0,0,0,0,0,0,-0.5756,-0.5758,-0.5776,-0.5777,-0.5778,-0.5791,-0.5789,-0.5805,-0.5795,-0.5789,-0.5795,-0.5794,-0.5808,-0.5809,-0.5813,-0.583,-0.5831,-0.582,-0.5821,-0.5821,-0.5822,0,0,0,0,0,0,0,-0.5755,-0.5757,-0.5781,-0.5777,-0.5778,-0.5779,-0.5781,-0.5792,-0.58,-0.5789,-0.5789,-0.5792,-0.5808,-0.5812,-0.5814,-0.5832,-0.582,-0.5821,-0.5822,-0.5822,-0.5861,-0.5861,0,0,0,0,0,0,-0.5753,-0.5756,-0.5781,-0.5782,-0.5766,-0.5779,-0.5782,-0.5787,-0.5799,-0.5801,-0.5792,-0.5792,-0.5811,-0.5813,-0.5815,-0.5831,-0.5821,-0.5822,-0.5823,-0.5861,-0.5861,-0.5861,0,0,0,0,0,0,-0.5752,-0.5755,-0.578,-0.5769,-0.5772,-0.578,-0.5787,-0.5788,-0.5792,-0.5801,-0.5803,-0.5795,-0.5811,-0.5813,-0.5826,-0.5831,-0.5823,-0.5824,-0.586,-0.5861,-0.5861,-0.5862,0,0,0,0,0,0,-0.5751,-0.5755,-0.5759,-0.5769,-0.5773,-0.579,-0.5787,-0.5788,-0.5794,-0.5794,-0.5805,-0.5806,-0.5811,-0.5824,-0.5827,-0.5833,-0.5825,-0.586,-0.586,-0.5861,-0.5862,-0.5863,-0.5863,0,0,0,0,0,-0.575,-0.5758,-0.5759,-0.5762,-0.5778,-0.579,-0.5792,-0.5797,-0.5794,-0.5799,-0.5805,-0.5806,-0.5831,-0.5826,-0.5829,-0.5835,-0.5859,-0.586,-0.5861,-0.5861,-0.5862,-0.5863,0,0,0,0,0,0,-0.5749,-0.576,-0.5761,-0.5773,-0.5781,-0.5791,-0.5796,-0.5798,-0.5807,-0.5806,-0.5812,-0.5814,-0.5827,-0.5832,-0.5827,-0.5848,-0.5845,-0.5846,-0.5844,-0.5845,-0.5846,-0.5844,-0.5826,0,0,0,0,0,-0.575,-0.5758,-0.5768,-0.5777,-0.5781,-0.5788,-0.5794,-0.5796,-0.5805,-0.5808,-0.5815,-0.5824,-0.5834,-0.584,-0.5849,-0.5863,-0.5866,-0.5869,-0.587,-0.587,-0.5871,-0.588,-0.5881,-0.5864,-0.5864,-0.5864,0,0,-0.5752,-0.5759,-0.5764,-0.5777,-0.5784,-0.5793,-0.5791,-0.58,-0.5807,-0.581,-0.5822,-0.5828,-0.5838,-0.5851,-0.5857,-0.5856,-0.5877,-0.5871,-0.5872,-0.5873,-0.5881,-0.5882,-0.5884,-0.5865,-0.5865,-0.5865,0,0,-0.5761,-0.5767,-0.5776,-0.5783,-0.5792,-0.5797,-0.58,-0.581,-0.5813,-0.5826,-0.5828,-0.5837,-0.5854,-0.5861,-0.5867,-0.588,-0.5881,-0.5883,-0.5887,-0.5896,-0.5897,-0.5898,-0.5903,-0.5905,-0.5884,-0.5884,-0.5884,0,-0.5763,-0.5776,-0.5781,-0.579,-0.5796,-0.5799,-0.5809,-0.5815,-0.5827,-0.5832,-0.583,-0.5851,-0.5858,-0.5874,-0.5877,-0.5882,-0.5885,-0.5881,-0.5896,-0.5898,-0.5899,-0.5904,-0.5905,-0.5884,-0.5884,-0.5884,-0.5884,0,-0.5777,-0.5787,-0.5793,-0.5805,-0.5812,-0.5821,-0.5828,-0.5835,-0.5837,-0.5843,-0.5856,-0.5865,-0.5876,-0.588,-0.5883,-0.5897,-0.5895,-0.5895,-0.5892,-0.59,-0.5905,-0.5907,-0.5884,-0.5884,-0.5884,-0.5884,0,0,-0.5785,-0.58,-0.5802,-0.5808,-0.5819,-0.5827,-0.5837,-0.5848,-0.5854,-0.5863,-0.5872,-0.5887,-0.5887,-0.5893,-0.5897,-0.5904,-0.5915,-0.5903,-0.5904,-0.5905,-0.5931,-0.593,-0.5932,-0.5916,-0.5916,-0.5917,-0.593,0,-0.5795,-0.5812,-0.5817,-0.5832,-0.5841,-0.5845,-0.5854,-0.5863,-0.5868,-0.5877,-0.5884,-0.5894,-0.5893,-0.5897,-0.5905,-0.5912,-0.592,-0.5911,-0.5925,-0.5925,-0.5921,-0.5935,-0.5934,-0.5946,-0.5932,-0.5932,-0.5932,0,-0.5808,-0.5817,-0.5833,-0.5844,-0.5848,-0.5856,-0.5867,-0.5876,-0.5886,-0.589,-0.5898,-0.5901,-0.5913,-0.591,-0.5927,-0.592,-0.5927,-0.5931,-0.5932,-0.5933,-0.5929,-0.5936,-0.595,-0.5952,-0.5935,-0.5935,-0.5935,0,-0.5812,-0.5828,-0.584,-0.5845,-0.5858,-0.5864,-0.587,-0.588,-0.5886,-0.5897,-0.5901,-0.5913,-0.5919,-0.5928,-0.5935,-0.5932,-0.5952,-0.5949,-0.5955,-0.5955,-0.5958,-0.5958,-0.5974,-0.5963,-0.5963,-0.5963,-0.5963,0,-0.5822,-0.5832,-0.5842,-0.5849,-0.586,-0.5867,-0.5878,-0.5884,-0.5893,-0.5902,-0.5907,-0.5915,-0.5924,-0.5934,-0.594,-0.5953,-0.5956,-0.596,-0.5961,-0.5959,-0.5958,-0.5962,-0.5962,-0.5964,-0.5964,-0.5964,-0.5963,0,-0.5828,-0.5835,-0.5848,-0.586,-0.5863,-0.5871,-0.5881,-0.5889,-0.5895,-0.5907,-0.591,-0.592,-0.5932,-0.594,-0.5956,-0.596,-0.5974,-0.5975,-0.597,-0.5971,-0.5977,-0.5976,-0.5995,-0.5998,-0.5986,-0.5986,-0.5986,0,-0.5833,-0.5841,-0.5854,-0.586,-0.5866,-0.5876,-0.5883,-0.589,-0.5897,-0.591,-0.5916,-0.5929,-0.5939,-0.5958,-0.5968,-0.598,-0.5981,-0.5987,-0.5983,-0.5981,-0.5981,-0.5981,-0.5982,-0.5988,-0.5988,-0.5988,-0.5988,0,-0.5843,-0.5846,-0.5856,-0.5867,-0.5875,-0.5884,-0.5894,-0.5899,-0.5908,-0.5916,-0.5928,-0.5936,-0.5952,-0.5965,-0.5978,-0.5985,-0.5988,-0.5989,-0.5992,-0.5989,-0.5986,-0.5988,-0.5972,-0.5989,-0.5989,-0.5989,-0.5988,-0.5988,-0.5849,-0.5856,-0.5866,-0.5877,-0.5884,-0.5893,-0.5901,-0.5909,-0.5919,-0.5932,-0.5936,-0.5949,-0.5961,-0.5979,-0.5986,-0.5997,-0.5997,-0.6,-0.6,-0.6001,-0.6001,-0.5985,-0.6,-0.6,-0.6,-0.6,-0.6,0,-0.5858,-0.5865,-0.5875,-0.5888,-0.5897,-0.5899,-0.591,-0.5917,-0.5928,-0.5938,-0.5948,-0.5963,-0.5976,-0.5986,-0.5999,-0.6006,-0.6008,-0.6009,-0.6009,-0.601,-0.6001,-0.5997,-0.6008,-0.6008,-0.6008,-0.6008,-0.6008,-0.6008,-0.5864,-0.5876,-0.5881,-0.5897,-0.5905,-0.5917,-0.5923,-0.5931,-0.594,-0.5956,-0.5966,-0.5973,-0.5983,-0.5998,-0.601,-0.6012,-0.6017,-0.6018,-0.6021,-0.6012,-0.6011,-0.601,-0.6007,-0.6019,-0.6019,-0.603,-0.603,-0.603]}]]